Weather History for KFFM - May, 2013

Change the Weather History Date:

Sunday, May 5, 2013

  Actual Average Record
Temperature  
Mean Temperature 44 °F -  
Max Temperature 50 °F 68 °F 95 °F (2000)
Min Temperature 37 °F 41 °F 25 °F (1954)
Degree Days  
Heating Degree Days 22    
Moisture  
Dew Point 38 °F    
Average Humidity 85    
Maximum Humidity 100    
Minimum Humidity 66    
Precipitation  
Precipitation 0.02 in - - ()
Sea Level Pressure  
Sea Level Pressure 30.17 in    
Wind  
Wind Speed 2 mph (North)    
Max Wind Speed 8 mph    
Max Gust Speed -    
Visibility 10 miles    
Events Rain    
Averages and records for this station are not official NWS values.
T = Trace of Precipitation, MM = Missing Value Source: NWS Daily Summary

Daily Weather History Graph

Daily Weather History Graph

Search for Another Location

Airport or City:

Trip Planner

Search our weather history database for the weather conditions in past years. The results will help you decide how hot, cold, wet, or windy it might be!

Date:

Astronomy

May. 05, 2013 Rise Set
Actual Time 6:04 AM CDT 8:38 PM CDT
Civil Twilight 5:30 AM CDT 9:13 PM CDT
Nautical Twilight 4:47 AM CDT 9:55 PM CDT
Astronomical Twilight 3:58 AM CDT 10:45 PM CDT
Moon 3:50 AM CDT (5/5) 4:26 PM CDT (5/5)
Length of Visible Light 15h 42m
Length of Day
14h 34m
Waning Crescent, 18% of the Moon is Illuminated
May 5
Waning Crescent
May 9
New
May 17
First Quarter
May 24
Full
May 31
Last Quarter

Hourly Weather History & Observations

Time (CDT) Temp. Windchill Dew Point Humidity Pressure Visibility Wind Dir Wind Speed Gust Speed Precip Events Conditions
12:13 AM 37.4 °F - 35.6 °F 93% 30.22 in 10.0 mi Calm Calm - N/A   Drizzle
12:33 AM 37.4 °F 34.9 °F 35.6 °F 93% 30.22 in 10.0 mi ENE 3.5 mph - N/A   Drizzle
12:53 AM 37.4 °F - 35.6 °F 93% 30.22 in 10.0 mi Calm Calm - N/A   Light Drizzle
1:13 AM 37.4 °F 34.9 °F 37.4 °F 100% 30.22 in 10.0 mi NNE 3.5 mph - 0.01 in   Light Drizzle
1:33 AM 37.4 °F - 37.4 °F 100% 30.21 in 10.0 mi Calm Calm - 0.01 in   Light Drizzle
1:53 AM 37.4 °F - 35.6 °F 93% 30.21 in 10.0 mi Calm Calm - 0.01 in   Drizzle
2:13 AM 37.4 °F 34.9 °F 35.6 °F 93% 30.20 in 10.0 mi NNE 3.5 mph - N/A   Drizzle
2:33 AM 37.4 °F - 35.6 °F 93% 30.20 in 10.0 mi Calm Calm - 0.01 in   Light Drizzle
3:14 AM 37.4 °F 34.9 °F 35.6 °F 93% 30.19 in 10.0 mi North 3.5 mph - N/A   Light Drizzle
3:33 AM 37.4 °F - 35.6 °F 93% 30.20 in 10.0 mi Calm Calm - N/A Rain Light Rain
3:53 AM 37.4 °F 34.9 °F 35.6 °F 93% 30.20 in 10.0 mi NNE 3.5 mph - N/A   Overcast
4:14 AM 37.4 °F 34.9 °F 35.6 °F 93% 30.20 in 10.0 mi North 3.5 mph - N/A   Overcast
4:33 AM 37.4 °F - 35.6 °F 93% 30.20 in 10.0 mi Calm Calm - N/A   Overcast
4:53 AM 37.4 °F - 35.6 °F 93% 30.20 in 10.0 mi Calm Calm - N/A   Light Drizzle
5:14 AM 37.4 °F 34.9 °F 35.6 °F 93% 30.20 in 10.0 mi NNE 3.5 mph - N/A   Overcast
5:33 AM 37.4 °F 34.9 °F 35.6 °F 93% 30.20 in 10.0 mi NNE 3.5 mph - N/A   Overcast
5:53 AM 37.4 °F 34.9 °F 35.6 °F 93% 30.20 in 10.0 mi NNE 3.5 mph - N/A   Overcast
6:14 AM 37.4 °F - 35.6 °F 93% 30.20 in 10.0 mi Calm Calm - N/A   Overcast
6:33 AM 37.4 °F - 35.6 °F 93% 30.20 in 10.0 mi Calm Calm - N/A   Overcast
6:53 AM 37.4 °F - 35.6 °F 93% 30.20 in 10.0 mi Calm Calm - N/A   Overcast
7:13 AM 37.4 °F 34.9 °F 35.6 °F 93% 30.20 in 10.0 mi NNE 3.5 mph - N/A   Overcast
7:33 AM 37.4 °F 34.9 °F 37.4 °F 100% 30.20 in 10.0 mi NE 3.5 mph - N/A   Overcast
7:53 AM 37.4 °F 34.9 °F 37.4 °F 100% 30.20 in 10.0 mi ENE 3.5 mph - N/A   Overcast
8:13 AM 37.4 °F 33.8 °F 37.4 °F 100% 30.20 in 10.0 mi NE 4.6 mph - N/A   Overcast
8:33 AM 39.2 °F 35.9 °F 37.4 °F 93% 30.20 in 10.0 mi NE 4.6 mph - N/A   Overcast
8:53 AM 39.2 °F 37.0 °F 37.4 °F 93% 30.21 in 10.0 mi NE 3.5 mph - N/A   Overcast
9:13 AM 39.2 °F 35.9 °F 37.4 °F 93% 30.20 in 10.0 mi ENE 4.6 mph - N/A   Mostly Cloudy
9:33 AM 39.2 °F 37.0 °F 37.4 °F 93% 30.20 in 10.0 mi NE 3.5 mph - N/A   Scattered Clouds
9:53 AM 41.0 °F - 37.4 °F 87% 30.20 in 10.0 mi Calm Calm - N/A   Scattered Clouds
10:13 AM 42.8 °F 41.1 °F 37.4 °F 81% 30.20 in 10.0 mi North 3.5 mph - N/A   Clear
10:33 AM 42.8 °F 41.1 °F 37.4 °F 81% 30.20 in 10.0 mi NNW 3.5 mph - N/A   Clear
10:58 AM 42.8 °F - 37.4 °F 81% 30.20 in 10.0 mi Calm Calm - N/A   Clear
11:13 AM 42.8 °F 39.3 °F 37.4 °F 81% 30.20 in 10.0 mi NNW 5.8 mph - N/A   Clear
11:33 AM 42.8 °F 40.1 °F 37.4 °F 81% 30.19 in 10.0 mi North 4.6 mph - N/A   Clear
11:53 AM 42.8 °F 39.3 °F 37.4 °F 81% 30.19 in 10.0 mi North 5.8 mph - N/A   Clear
12:13 PM 44.6 °F 40.7 °F 37.4 °F 76% 30.19 in 10.0 mi North 6.9 mph - N/A   Clear
12:33 PM 44.6 °F 42.2 °F 37.4 °F 76% 30.18 in 10.0 mi NNW 4.6 mph - N/A   Clear
12:53 PM 44.6 °F 41.4 °F 37.4 °F 76% 30.18 in 10.0 mi North 5.8 mph - N/A   Clear
1:13 PM 44.6 °F 40.7 °F 37.4 °F 76% 30.18 in 10.0 mi NNW 6.9 mph - N/A   Clear
1:33 PM 44.6 °F 40.2 °F 37.4 °F 76% 30.18 in 10.0 mi North 8.1 mph - N/A   Clear
1:53 PM 44.6 °F 43.1 °F 37.4 °F 76% 30.18 in 10.0 mi North 3.5 mph - N/A   Clear
2:13 PM 46.4 °F 43.5 °F 37.4 °F 71% 30.18 in 10.0 mi North 5.8 mph - N/A   Clear
2:33 PM 46.4 °F 44.3 °F 37.4 °F 71% 30.17 in 10.0 mi NE 4.6 mph - N/A   Clear
2:53 PM 46.4 °F 44.3 °F 39.2 °F 76% 30.16 in 10.0 mi East 4.6 mph - N/A   Clear
3:13 PM 46.4 °F 45.2 °F 39.2 °F 76% 30.16 in 10.0 mi ENE 3.5 mph - N/A   Clear
3:33 PM 46.4 °F - 39.2 °F 76% 30.15 in 10.0 mi Calm Calm - N/A   Clear
3:53 PM 46.4 °F - 39.2 °F 76% 30.15 in 10.0 mi Calm Calm - N/A   Clear
4:13 PM 48.2 °F - 39.2 °F 71% 30.15 in 10.0 mi Calm Calm - N/A   Clear
4:33 PM 48.2 °F - 39.2 °F 71% 30.14 in 10.0 mi ENE 3.5 mph - N/A   Clear
4:53 PM 48.2 °F - 39.2 °F 71% 30.13 in 10.0 mi Calm Calm - N/A   Clear
5:13 PM 48.2 °F - 39.2 °F 71% 30.13 in 10.0 mi Calm Calm - N/A   Clear
5:53 PM 50.0 °F - 39.2 °F 66% 30.12 in 10.0 mi Calm Calm - N/A   Clear
6:13 PM 48.2 °F - 39.2 °F 71% 30.12 in 10.0 mi Calm Calm - N/A   Clear
6:33 PM 48.2 °F - 39.2 °F 71% 30.12 in 10.0 mi Calm Calm - N/A   Scattered Clouds
6:53 PM 48.2 °F - 39.2 °F 71% 30.11 in 10.0 mi Calm Calm - N/A   Scattered Clouds
7:13 PM 50.0 °F - 41.0 °F 71% 30.11 in 10.0 mi Calm Calm - N/A   Scattered Clouds
7:33 PM 48.2 °F - 41.0 °F 76% 30.12 in 10.0 mi Calm Calm - N/A   Scattered Clouds
7:53 PM 48.2 °F - 41.0 °F 76% 30.12 in 10.0 mi Calm Calm - N/A   Scattered Clouds
8:13 PM 48.2 °F - 41.0 °F 76% 30.11 in 10.0 mi Calm Calm - N/A   Scattered Clouds
8:33 PM 48.2 °F - 41.0 °F 76% 30.11 in 10.0 mi Calm Calm - N/A   Clear
8:53 PM 48.2 °F - 42.8 °F 82% 30.12 in 10.0 mi WNW 3.5 mph - N/A   Scattered Clouds
9:13 PM 48.2 °F - 42.8 °F 82% 30.12 in 10.0 mi WNW 3.5 mph - N/A   Scattered Clouds
9:53 PM 46.4 °F 45.2 °F 42.8 °F 87% 30.12 in 10.0 mi NW 3.5 mph - N/A   Clear
10:13 PM 46.4 °F 45.2 °F 42.8 °F 87% 30.12 in 10.0 mi WNW 3.5 mph - N/A   Scattered Clouds
10:33 PM 46.4 °F 44.3 °F 42.8 °F 87% 30.12 in 10.0 mi WNW 4.6 mph - N/A   Scattered Clouds
10:53 PM 46.4 °F 44.3 °F 42.8 °F 87% 30.12 in 7.0 mi WNW 4.6 mph - N/A   Scattered Clouds
11:13 PM 44.6 °F 41.4 °F 42.8 °F 93% 30.12 in 10.0 mi WNW 5.8 mph - N/A   Clear
11:34 PM 44.6 °F 42.2 °F 42.8 °F 93% 30.12 in 10.0 mi WNW 4.6 mph - N/A   Clear
11:53 PM 44.6 °F 43.1 °F 42.8 °F 93% 30.12 in 10.0 mi WNW 3.5 mph - N/A   Clear